Presure
168 159 165 155 153 166 176 144 162 147 178 177 151 184 191 181 166 168 181 187 182 163 199 200 179 172 197 208 193 185 185 191 202 202 210 153 135 186 195 189 208 218 214 199 174 208 186 159 141 208 213 230 228 230
162 178 137 161 168 157 164 172 159 181 135 154 165 158 199 183 183 162 178 161 169 178 181 196 176 193 190 195 179 197 198 181 187 200 207 199 222 207 180 181 139 202 196 196 171 149 157 186 179 214 214 218 218 201
156 164 140 151 156 156 167 168 180 177 173 131 141 175 156 184 174 185 172 185 158 161 179 178 205 185 195 196 201 178 180 211 209 191 198 201 195 189 207 189 194 190 190 187 193 204 205 207 217 211 210 203 207 200
143 155 139 163 156 176 177 168 167 147 123 161 125 170 165 170 167 174 180 170 182 184 170 175 191 177 194 187 173 172 194 195 175 178 202 181 189 211 194 198 210 219 199 189 166 165 133 192 191 197 197 158 139 209
157 161 169 150 163 166 149 164 163 169 171 169 172 153 172 145 191 180 166 181 176 185 172 194 207 183 167 181 188 192 170 185 187 197 181 175 183 175 194 181 189 190 195 204 210 191 207 185 187 194 210 204 211 206
159 151 166 164 171 157 171 170 158 176 170 174 180 168 170 174 141 170 142 189 177 147 172 173 151 203 171 190 184 156 188 181 181 165 166 187 184 199 188 171 194 183 185 191 203 186 217 153 188 215 204 198 193 203
192 127 142 155 151 150 152 169 179 174 183 181 178 178 172 164 150 140 168 162 166 155 149 193 172 196 179 183 166 194 199 183 195 190 188 172 166 189 172 209 171 196 188 193 197 192 191 195 183 198 194 196 194 212
195 164 194 170 149 179 180 153 169 176 167 173 179 184 170 170 175 182 136 161 131 163 164 149 170 173 177 171 183 199 173 181 192 195 181 188 188 178 182 193 192 209 166 171 192 194 199 181 179 181 204 194 194 205
215 198 195 186 195 177 181 184 184 192 187 172 183 181 165 180 179 182 176 154 173 141 149 181 180 149 181 194 196 189 195 186 194 201 181 192 189 199 175 177 203 201 199 206 204 177 206 193 193 185 190 211 197 183
232 205 195 195 193 203 194 184 178 189 154 183 154 160 189 185 177 180 177 181 178 178 173 176 184 137 141 162 187 179 164 189 186 193 191 188 180 194 170 178 185 219 209 165 198 194 196 175 180 199 198 209 194 187
216 223 214 208 202 191 205 185 192 193 197 192 194 185 211 171 183 182 185 191 154 179 186 173 171 191 192 149 188 185 141 188 196 197 199 191 186 191 196 203 212 222 204 216 200 197 190 202 190 187 179 205 190 188
213 220 217 220 206 204 205 204 201 205 204 180 197 188 190 192 190 204 193 179 179 185 182 170 191 134 168 164 184 188 193 191 202 204 206 195 189 187 191 200 203 195 191 187 200 192 205 189 201 204 185 196 172 182
201 205 243 204 220 216 219 220 189 204 207 200 190 195 186 204 208 202 190 192 202 206 203 171 197 193 206 168 185 181 208 200 210 198 195 196 196 157 188 190 206 212 211 225 211 223 221 186 206 226 201 196 212 200
231 212 236 211 235 220 226 210 217 212 204 203 215 214 199 198 187 174 192 201 198 200 186 199 198 204 193 201 202 216 184 200 173 196 207 206 194 216 211 182 200 220 222 220 225 213 204 196 201 193 223 245 210 194
229 236 239 247 211 242 204 217 217 212 217 217 227 201 200 204 198 204 203 208 200 201 202 201 207 193 195 206 202 208 214 189 207 189 205 209 209 211 212 219 221 220 207 234 230 237 216 220 231 242 229 218 220 209
230 241 254 239 253 237 236 258 225 233 243 241 232 214 223 219 226 199 218 216 226 221 218 208 212 218 224 220 217 226 226 216 211 209 165 187 222 195 186 201 237 254 257 241 177 186 226 228 212 208 261 238 236 232
237 261 230 235 245 250 231 241 263 232 260 212 243 219 224 232 251 248 221 222 215 223 226 237 200 236 235 227 221 211 212 227 225 229 247 233 232 243 194 253 253 243 247 297 287 244 265 239 239 238 270 242 217 226
264 268 302 218 224 266 248 259 240 247 281 258 242 239 222 222 101 129 146 218 232 231 228 244 232 229 256 255 224 240 238 187 160 223 144 277 146 122 213 294 286 261 161 298 285 281 294 272 239 253 265 259 241 228
324 294 292 291 253 261 270 268 316 290 285 247 310 323 267 246 283 236 252 244 186 255 247 283 253 245 242 238 256 255 82 205 105 117 160 174 129 289 297 180 337 262 234 297 285 265 270 262 238 205 268 260 175 259
297 303 309 279 309 315 322 326 271 376 224 306 331 253 268 311 251 87 112 222 254 238 281 344 358 241 268 402 272 391 382 375 290 409 285 259 330 169 321 312 342 331 313 319 296 277 286 277 238 243 255 252 185 258
290 292 298 308 327 300 302 347 314 316 338 355 335 338 333 336 87 85 345 328 347 345 373 370 236 369 365 256 372 383 392 392 386 355 379 373 355 380 390 277 347 302 288 330 337 315 295 284 275 254 279 275 271 270
292 296 299 290 302 303 300 315 318 312 331 277 323 319 272 313 329 321 299 285 257 324 318 305 314 335 334 306 293 346 364 371 375 382 383 382 377 372 292 351 347 337 350 338 319 304 306 318 295 287 277 277 277 277
303 293 289 295 295 295 304 311 312 307 309 306 307 305 313 307 312 311 321 326 324 311 308 306 309 314 327 324 326 328 333 218 357 212 287 361 365 368 366 321 250 135 365 341 335 338 298 292 292 295 295 284 218 274
302 302 310 318 318 279 91 233 87 304 305 308 311 309 312 312 323 324 334 334 282 319 322 328 321 318 341 331 314 314 312 321 330 334 332 340 351 351 361 357 268 367 351 340 332 333 318 286 274 298 306 280 282 285
367 426 436 439 312 309 320 321 309 375 322 313 313 333 332 337 337 336 343 341 333 331 333 333 344 329 336 357 352 341 295 314 325 306 310 329 336 342 351 349 360 353 376 365 395 352 289 277 292 299 287 169 272 273
355 359 421 424 424 429 425 433 433 432 323 344 432 434 295 292 390 329 375 321 368 324 336 333 336 343 339 339 341 347 348 325 309 320 300 314 323 328 333 344 351 356 364 371 339 315 293 270 323 293 274 270 274 281
355 360 374 376 374 378 389 398 406 401 405 406 412 411 407 413 394 427 447 448 353 438 428 419 416 425 426 413 338 270 350 259 331 318 307 305 314 322 325 325 332 349 357 333 271 278 330 337 289 280 268 296 292 273
344 370 383 390 66 379 394 395 401 401 399 402 377 330 385 399 414 421 398 425 439 428 413 410 409 416 422 414 244 327 343 163 350 316 317 307 279 306 316 329 334 340 356 410 368 237 337 314 269 263 270 270 262 206
371 369 363 378 379 380 385 387 389 396 389 384 386 391 392 402 407 403 406 408 134 408 407 405 407 401 409 395 416 405 183 190 195 389 194 303 304 163 305 319 322 331 346 360 345 295 354 304 281 283 274 268 274 213
351 354 360 360 364 365 373 373 376 378 375 381 388 395 405 407 387 380 390 397 420 425 415 401 402 397 401 151 401 399 400 402 409 352 257 212 288 294 303 314 321 331 280 400 364 365 334 348 216 302 305 291 292 278
110 349 395 396 411 427 443 446 442 443 445 425 378 383 390 374 370 375 387 398 414 420 355 309 407 397 395 360 218 405 246 242 413 311 286 267 298 281 304 262 308 323 341 311 155 400 375 340 326 336 318 288 261 277
417 418 420 423 298 427 422 420 412 409 433 454 474 488 379 381 383 372 372 397 405 419 409 398 216 402 387 258 154 414 394 406 355 402 298 299 151 288 303 305 293 273 330 380 371 371 149 322 305 318 310 279 276 276
410 211 426 436 425 406 385 391 405 421 436 450 454 462 362 378 391 387 365 377 390 391 391 399 405 351 350 415 418 192 411 410 399 389 305 280 302 285 292 302 294 289 155 215 158 380 291 335 342 297 294 267 290 252
Wind_Speed
55 49 49 33 34 45 54 27 45 30 52 49 21 40 50 47 25 26 38 46 31 18 41 45 18 21 33 40 25 24 26 29 38 38 43 9 18 21 26 27 27 25 22 21 10 24 17 17 20 27 23 30 29 30
55 62 36 47 53 39 43 54 42 57 25 33 27 23 38 52 50 20 41 16 21 30 30 41 20 38 28 29 19 27 28 23 23 31 38 32 33 32 19 22 22 30 29 27 11 21 20 26 29 27 24 27 27 33
62 59 40 47 46 45 55 53 59 58 52 25 29 49 26 55 39 56 33 49 25 18 39 32 29 40 31 38 39 18 16 40 39 18 22 26 28 24 32 23 27 25 27 27 32 31 32 33 32 34 34 34 34 35
53 62 49 61 53 65 61 57 54 44 27 39 25 51 31 40 34 43 51 34 49 41 33 35 45 32 26 38 26 23 38 37 22 21 30 24 21 34 22 27 32 34 27 27 22 29 36 33 35 35 37 36 38 39
69 71 69 57 65 66 47 54 55 59 59 53 52 39 52 31 61 49 38 54 48 51 29 50 39 43 28 39 41 35 27 36 35 42 27 31 25 34 29 26 22 22 27 31 32 29 33 32 32 34 37 37 41 41
77 69 72 73 73 65 70 71 58 68 62 67 70 52 52 55 35 47 31 62 54 30 47 37 28 59 34 40 45 29 38 37 36 32 29 30 27 41 38 39 30 26 24 24 30 28 39 40 36 45 32 35 39 42
89 49 60 72 61 61 67 73 79 76 81 77 73 72 65 48 47 39 48 48 44 38 37 69 53 70 48 44 30 50 45 40 42 42 47 37 32 39 38 51 37 45 34 24 30 27 27 27 37 36 37 39 42 46
91 82 92 84 70 86 84 71 75 82 72 75 80 84 64 69 70 75 42 55 40 54 48 43 56 47 53 41 58 66 39 51 55 53 42 47 51 42 38 54 49 54 42 45 44 32 39 43 42 40 49 47 47 48
101 97 97 92 97 89 91 93 91 91 92 82 90 85 65 82 79 82 72 55 65 48 51 81 81 38 79 85 80 71 74 63 66 64 51 61 63 63 40 43 63 62 59 57 51 46 52 39 38 46 50 57 44 53
100 102 98 102 98 102 103 97 92 96 66 91 60 62 90 88 80 80 78 84 78 80 74 82 91 34 34 54 81 53 45 74 66 76 67 65 70 74 42 44 51 63 64 47 61 51 47 53 48 58 47 59 45 53
105 106 107 109 107 102 110 96 102 100 101 98 98 90 93 79 90 88 86 91 70 87 91 80 77 95 95 46 85 70 42 73 87 85 81 76 82 83 78 72 74 70 66 64 64 62 51 67 54 57 55 55 51 55
108 105 106 112 113 111 111 109 108 108 106 94 100 95 94 97 87 96 94 89 92 93 92 73 95 45 74 67 81 87 87 80 95 93 90 84 91 78 75 74 70 60 59 52 64 62 73 57 69 73 62 54 62 62
106 108 110 108 119 119 121 121 102 110 111 109 101 101 94 100 98 97 98 99 101 104 105 84 104 97 104 73 73 60 95 95 98 91 89 95 92 65 72 71 88 88 76 86 72 76 77 59 79 81 65 57 76 75
114 114 111 112 111 122 124 111 119 114 109 110 118 112 101 99 94 90 103 108 107 106 84 103 102 107 96 102 95 106 65 85 45 88 103 102 87 97 94 73 73 94 94 86 86 73 70 70 72 66 79 79 70 60
116 113 110 111 119 120 113 119 121 119 123 119 123 103 101 107 106 112 113 114 111 113 110 107 114 92 94 109 97 105 110 95 103 94 103 103 101 99 92 96 101 95 75 100 96 96 79 84 90 90 80 71 74 69
118 117 118 117 115 122 122 114 122 131 133 128 114 109 118 116 124 111 126 123 128 124 122 113 116 117 118 116 111 117 116 117 119 121 72 88 112 86 79 91 115 116 110 105 58 60 85 83 76 80 86 79 78 78
117 122 122 120 118 119 123 126 121 127 128 109 125 114 119 118 119 127 121 122 120 125 126 130 92 131 125 113 109 102 110 130 128 129 132 115 110 114 70 110 109 103 102 81 85 96 81 86 88 84 78 79 70 70
126 124 132 118 118 129 128 127 128 128 123 120 120 117 116 116 24 24 35 116 128 123 119 133 121 111 131 132 113 133 131 79 44 108 26 120 43 30 95 95 104 106 45 82 82 79 75 78 87 81 77 78 78 71
108 121 122 126 118 123 129 127 128 119 113 115 113 114 113 120 114 122 121 121 67 124 126 124 121 120 124 127 120 125 15 82 37 41 62 50 43 102 99 52 77 100 74 82 82 87 81 82 82 55 78 79 41 81
102 104 106 117 111 113 115 112 115 91 108 106 102 112 112 89 116 13 21 81 117 122 110 102 92 122 91 69 115 74 74 76 93 71 97 104 81 32 80 81 80 78 75 75 78 82 77 79 64 74 79 77 42 76
102 99 101 100 96 108 109 92 100 95 90 85 91 93 94 88 25 26 83 94 86 92 76 70 108 66 69 103 67 65 67 69 67 63 70 70 66 71 69 78 74 75 73 75 75 74 77 75 78 79 78 78 77 77
97 100 101 102 102 107 105 89 90 91 88 70 84 90 94 84 82 84 94 96 94 80 79 82 80 75 74 83 84 73 70 67 64 63 63 62 62 63 57 68 67 70 69 70 70 69 68 65 70 70 73 73 70 68
99 102 101 102 106 107 97 88 92 89 90 85 89 90 87 87 87 87 84 82 78 78 82 82 78 77 77 79 76 71 67 49 58 30 45 58 59 56 55 61 52 45 60 64 65 61 64 66 66 65 66 66 56 65
95 96 98 101 102 86 3 64 18 89 87 85 88 90 86 85 84 82 80 74 76 74 75 75 80 81 81 79 71 65 61 62 58 55 55 55 54 54 53 52 57 56 60 61 58 59 61 60 59 61 58 59 60 61
82 66 68 69 90 93 92 87 85 80 84 87 91 87 84 84 82 81 75 65 67 69 71 76 80 81 77 72 67 64 64 60 62 50 52 57 55 52 50 50 47 49 53 52 49 52 58 57 51 55 53 42 54 56
74 72 62 62 63 63 63 60 58 55 77 46 58 55 82 79 68 77 60 67 58 65 73 78 77 77 72 66 63 63 62 61 57 51 55 54 52 50 47 47 46 47 48 46 50 52 52 51 52 52 54 53 54 55
65 59 56 56 58 59 58 52 52 56 56 57 54 54 58 60 63 51 40 35 40 45 53 59 59 54 52 55 63 44 61 43 57 53 53 52 51 49 46 44 45 45 43 45 48 52 49 47 52 52 52 53 53 52
56 54 51 47 13 53 53 54 55 56 53 51 50 47 60 57 53 47 37 38 43 47 55 55 55 52 50 55 27 57 56 27 57 52 49 48 45 44 45 44 42 40 39 39 39 26 45 49 47 48 49 47 46 45
44 44 49 46 50 54 56 55 53 49 49 58 60 57 57 53 46 40 37 39 37 47 48 49 50 55 54 51 48 46 32 31 28 49 40 43 45 47 40 40 40 38 35 34 39 41 42 45 48 49 47 46 48 38
42 49 55 55 57 56 51 53 51 53 58 60 58 55 49 41 39 43 43 41 39 41 45 52 52 54 52 33 48 48 48 50 48 44 35 48 43 41 39 37 36 34 28 32 34 38 38 47 28 49 50 50 52 49
18 55 46 46 45 40 38 35 43 46 48 49 51 50 38 34 38 38 37 36 37 38 40 45 49 52 51 49 31 52 25 35 45 34 37 36 41 39 36 36 33 32 31 31 20 33 42 44 45 51 53 47 39 48
30 34 36 39 26 31 37 32 32 37 36 40 39 41 33 34 26 26 32 39 39 38 41 47 43 46 47 50 48 50 48 44 38 40 36 36 20 36 33 32 32 36 33 31 33 35 24 43 43 45 47 44 46 46
24 18 27 29 19 13 24 34 34 36 36 37 34 34 29 22 14 25 36 41 42 43 46 45 43 42 46 45 44 32 45 42 39 39 37 38 37 35 33 32 34 32 23 33 16 35 37 39 40 44 45 45 45 42
Wind_Direction
268 272 278 271 266 287 294 264 299 286 308 311 281 318 324 330 319 326 344 350 353 330 356 1 354 344 14 19 27 14 9 27 43 39 33 293 264 20 26 14 27 41 33 10 337 21 4 308 277 5 3 16 11 7
260 264 256 270 276 275 286 291 282 296 280 292 293 281 309 321 323 295 331 304 333 340 345 345 340 359 355 360 1 18 18 360 15 33 30 28 21 12 350 354 278 10 6 7 328 304 299 350 342 3 357 0 359 334
261 261 258 270 271 271 279 282 286 290 293 282 280 303 274 312 315 319 314 320 300 296 330 333 345 343 346 351 354 334 350 2 4 3 24 24 20 0 11 359 3 1 357 353 355 359 354 352 356 349 344 337 339 331
260 264 257 264 266 269 270 274 279 279 268 279 274 296 283 300 294 308 310 302 318 316 311 314 326 323 328 334 316 316 344 345 328 333 350 329 345 358 4 357 357 356 343 341 298 313 277 344 341 342 338 311 297 340
256 257 258 268 268 270 261 270 273 278 280 281 283 268 290 269 298 295 290 305 308 311 301 317 318 316 298 319 325 330 304 329 331 337 327 323 323 319 329 322 333 337 345 345 345 328 342 327 329 328 339 336 338 335
252 258 257 259 260 266 265 271 271 272 275 279 281 280 284 284 267 291 278 300 304 282 300 293 282 315 304 310 314 296 314 315 315 303 302 320 319 325 315 313 326 311 313 323 335 316 335 274 319 335 333 325 320 333
244 249 258 257 258 264 268 266 266 272 271 273 277 279 280 278 280 266 289 289 285 268 284 304 296 305 305 307 287 313 308 306 305 306 309 302 292 312 296 318 302 314 308 311 314 311 312 316 311 324 320 321 317 331
245 252 250 253 261 257 258 266 265 267 270 272 273 274 270 273 281 283 267 281 274 286 286 280 290 289 299 286 303 303 299 304 307 303 301 303 301 296 303 308 309 309 300 303 305 300 310 300 300 302 314 312 315 323
244 247 249 251 251 255 257 258 259 257 260 262 266 269 278 274 273 279 285 270 288 263 275 293 293 270 296 297 297 301 300 304 304 302 303 304 301 296 290 295 303 302 304 301 305 296 303 294 296 298 303 316 307 307
244 247 249 251 251 251 254 257 258 258 266 263 269 264 266 268 273 274 278 279 283 284 287 286 287 266 265 286 294 295 284 299 301 300 299 299 298 297 276 289 296 296 294 289 302 306 303 292 292 298 310 308 299 303
245 243 245 247 250 253 254 256 256 257 257 259 260 262 259 272 270 271 271 272 264 275 276 275 278 280 282 277 288 291 260 295 294 293 293 295 293 293 293 296 300 296 296 292 293 297 299 300 298 299 292 307 293 297
249 246 245 246 250 252 253 254 255 256 257 261 259 261 263 264 265 265 267 271 272 272 273 273 276 269 275 275 285 286 288 293 288 289 288 288 285 291 293 295 295 293 291 290 294 285 293 290 296 297 292 297 296 293
249 250 251 250 248 251 251 253 253 256 257 257 259 259 260 263 264 266 267 268 268 269 270 271 274 277 276 277 281 284 281 284 282 286 287 284 286 280 292 293 291 292 293 295 293 296 293 281 294 290 291 291 297 299
247 248 250 250 252 251 251 253 254 256 255 257 258 258 260 262 264 269 268 268 269 269 275 272 273 273 277 279 279 281 272 285 268 283 282 282 283 283 286 288 288 290 291 291 294 290 289 287 286 283 291 288 293 282
247 249 249 253 249 250 252 253 254 254 256 257 258 259 262 263 264 264 265 266 267 269 270 272 272 276 279 277 280 281 282 279 283 279 281 283 283 285 288 290 290 291 282 291 290 290 289 291 293 291 288 284 287 288
248 251 254 250 252 250 252 255 253 253 255 255 258 260 261 261 263 263 265 267 266 266 268 270 271 273 272 273 277 277 278 279 279 280 279 284 285 287 288 287 287 286 284 288 290 287 290 288 286 282 284 285 283 285
249 260 247 251 249 253 252 253 254 253 256 259 257 259 261 260 262 262 264 264 266 268 269 270 276 271 271 273 276 279 279 278 276 279 280 283 284 284 285 281 282 285 287 275 272 284 276 282 284 284 278 284 282 284
257 256 255 250 252 260 253 258 254 255 262 256 258 260 260 261 291 245 251 264 265 266 268 267 270 275 271 271 276 273 274 278 271 280 266 279 286 266 281 278 277 278 294 271 272 271 265 269 285 280 277 279 280 283
254 254 255 256 254 259 261 262 263 262 263 258 266 265 262 260 261 261 261 263 261 265 268 269 270 274 274 272 276 272 250 278 266 266 275 270 277 278 274 285 264 276 275 268 270 274 271 272 283 282 273 278 304 281
252 253 256 257 259 260 260 261 260 263 260 267 265 259 261 266 259 222 264 266 265 267 269 274 279 271 275 273 270 271 271 271 279 268 272 277 270 272 270 269 263 262 267 262 264 270 263 265 268 275 279 283 283 278
254 256 256 258 260 259 259 262 263 266 266 264 266 267 267 266 221 239 267 268 269 271 272 274 270 273 273 271 272 273 271 268 268 270 269 268 269 269 267 268 263 267 267 262 259 258 261 264 268 277 271 273 276 280
254 254 255 257 258 260 260 262 263 263 263 261 265 266 261 265 264 264 266 268 267 273 272 272 272 270 270 271 273 269 269 270 272 272 272 270 268 267 267 265 264 265 265 261 260 262 263 257 262 266 271 270 273 275
250 254 256 256 257 259 261 261 261 262 263 264 265 266 264 264 263 263 264 264 267 269 268 269 269 269 267 266 268 270 272 267 274 271 273 274 272 271 269 266 259 258 262 261 261 260 260 263 264 261 261 265 270 271
250 250 252 253 255 258 227 263 213 264 265 265 264 263 263 263 263 263 265 266 266 264 265 265 265 264 262 264 266 271 273 272 271 269 270 270 270 270 269 264 268 262 260 260 261 259 259 260 265 261 259 264 265 265
251 250 251 252 257 260 260 261 263 263 262 262 261 263 265 266 267 266 266 266 264 262 262 261 260 262 264 264 266 265 267 267 267 268 266 267 268 270 269 269 266 261 260 258 254 255 254 257 261 257 257 265 262 263
254 257 255 257 259 262 266 268 269 268 261 266 263 265 264 266 265 265 267 263 262 260 259 258 260 261 263 263 262 262 260 261 264 262 260 265 266 267 268 268 267 265 261 258 253 251 250 252 252 254 257 260 261 261
257 261 261 262 264 265 267 268 265 264 263 263 264 264 263 262 264 267 267 259 242 247 249 250 251 254 256 258 262 262 259 255 260 259 259 261 264 265 266 266 267 267 263 254 255 256 254 248 252 255 260 256 256 265
260 261 263 264 253 265 266 264 263 262 262 265 263 262 260 263 265 265 261 254 252 248 249 251 254 255 255 256 264 257 257 240 257 255 256 259 264 264 265 265 266 268 268 245 252 261 250 250 256 260 263 266 268 279
260 263 264 264 262 259 259 259 261 263 262 259 258 256 258 260 265 268 264 259 219 250 252 253 252 253 254 254 253 252 232 262 256 257 271 257 261 271 266 265 267 266 263 257 253 250 243 252 253 253 257 260 263 280
255 256 256 256 258 260 265 265 263 259 255 257 260 262 264 265 263 259 256 258 260 256 251 250 250 252 254 213 254 252 252 252 255 253 252 251 255 260 263 261 260 261 253 243 245 242 236 236 267 250 249 254 255 261
234 260 260 262 264 268 272 269 266 266 269 271 265 266 266 258 257 265 266 263 256 251 252 251 253 252 252 251 272 249 254 281 253 255 252 256 253 257 256 252 256 255 252 256 289 229 230 236 242 242 245 252 259 259
255 261 263 262 262 263 263 275 281 275 283 278 277 274 263 258 253 254 263 253 249 244 245 247 252 249 253 256 272 251 252 248 252 254 243 245 313 251 250 249 252 258 247 243 238 230 308 237 241 241 244 250 255 259
274 246 283 280 285 272 259 265 271 279 282 283 280 278 256 256 240 230 241 248 247 244 241 243 246 250 249 250 251 284 255 254 251 252 236 239 241 245 244 242 245 251 300 276 301 232 244 232 232 243 246 253 253 263